W5DRO-13 Weather Reports


time (UTC)temp
C
wind
direction
speed
KPH
gust
KPH
rain 1hr
cm
rain 24hr
cm
rain mn
cm
humidity
%
barometer
mb
20260507093606 4 79 0.0 0.0 0.00 0.00 0.00 94 1020.1
20260507093105 3 79 0.0 0.0 0.00 0.00 0.00 93 1020.5
20260507092601 3 79 0.0 0.0 0.00 0.00 0.00 93 1020.4
20260507092058 4 79 0.0 0.0 0.00 0.00 0.00 93 1020.1
20260507091554 4 79 0.0 0.0 0.00 0.00 0.00 93 1020.0
20260507091051 4 79 0.0 0.0 0.00 0.00 0.00 93 1019.9
20260507090546 4 79 0.0 0.0 0.00 0.00 0.00 93 1020.0
20260507090044 4 79 0.0 0.0 0.00 0.00 0.00 93 1020.0
20260507085541 4 79 0.0 0.0 0.00 0.00 0.00 93 1020.4
20260507085037 4 79 0.0 0.0 0.00 0.00 0.00 93 1020.0
20260507084534 4 79 0.0 0.0 0.00 0.00 0.00 93 1020.1
20260507084031 4 79 0.0 0.0 0.00 0.00 0.00 92 1020.0
20260507083527 4 79 0.0 0.0 0.00 0.00 0.00 92 1020.4
20260507083025 4 79 0.0 0.0 0.00 0.00 0.00 92 1020.4
20260507082520 4 79 0.0 0.0 0.00 0.00 0.00 91 1020.2
20260507082016 4 79 0.0 0.0 0.00 0.00 0.00 91 1020.2
20260507081513 4 79 0.0 0.0 0.00 0.00 0.00 91 1020.1
20260507081010 4 79 0.0 0.0 0.00 0.00 0.00 91 1020.1
20260507080506 5 79 0.0 0.0 0.00 0.00 0.00 91 1020.2
20260507080001 5 79 0.0 0.0 0.00 0.00 0.00 90 1020.2
20260507075458 5 79 0.0 0.0 0.00 0.00 0.00 90 1020.2
20260507074954 5 79 0.0 0.0 0.00 0.00 0.00 90 1020.3
20260507074451 5 79 0.0 0.0 0.00 0.00 0.00 90 1020.6
20260507073950 5 79 0.0 0.0 0.00 0.00 0.00 90 1020.4
20260507073445 5 79 0.0 0.0 0.00 0.00 0.00 89 1020.2
20260507072942 5 79 0.0 0.0 0.00 0.00 0.00 88 1020.4
20260507072439 5 79 0.0 0.0 0.00 0.00 0.00 88 1020.3
20260507071937 5 79 0.0 0.0 0.00 0.00 0.00 88 1020.1
20260507071434 5 79 0.0 0.0 0.00 0.00 0.00 88 1020.1
20260507070930 6 79 0.0 0.0 0.00 0.00 0.00 87 1020.3
20260507070428 6 79 0.0 0.0 0.00 0.00 0.00 87 1020.0
20260507065924 6 79 0.0 1.6 0.00 0.00 0.00 88 1020.1
20260507065421 6 79 0.0 0.0 0.00 0.00 0.00 88 1020.2
20260507064919 6 79 0.0 0.0 0.00 0.00 0.00 87 1020.4
20260507064417 6 79 0.0 0.0 0.00 0.00 0.00 87 1019.8
20260507063914 6 79 0.0 0.0 0.00 0.00 0.00 87 1020.2
20260507063411 6 79 0.0 0.0 0.00 0.00 0.00 87 1020.7
20260507062908 6 79 0.0 0.0 0.00 0.00 0.00 86 1020.7
20260507062405 6 79 0.0 0.0 0.00 0.00 0.00 85 1020.9
20260507061903 6 79 0.0 0.0 0.00 0.00 0.00 85 1020.8
20260507061401 6 79 0.0 0.0 0.00 0.00 0.00 84 1020.8
20260507060859 6 79 0.0 0.0 0.00 0.00 0.00 84 1021.0
20260507060355 6 79 0.0 0.0 0.00 0.00 0.00 84 1021.0
20260507055852 7 79 0.0 0.0 0.00 0.00 0.00 84 1020.9
20260507055347 7 79 0.0 0.0 0.00 0.00 0.00 84 1021.0
20260507054844 7 79 0.0 0.0 0.00 0.00 0.00 83 1020.9
20260507054340 7 79 0.0 0.0 0.00 0.00 0.00 83 1021.0
20260507053837 7 79 0.0 0.0 0.00 0.00 0.00 82 1020.8
20260507053335 7 79 0.0 0.0 0.00 0.00 0.00 81 1020.8
20260507052834 7 79 0.0 0.0 0.00 0.00 0.00 81 1020.6
20260507052330 7 79 0.0 0.0 0.00 0.00 0.00 81 1020.9
20260507051828 7 79 0.0 0.0 0.00 0.00 0.00 80 1020.4
20260507051325 7 79 0.0 0.0 0.00 0.00 0.00 80 1020.7
20260507050822 8 79 0.0 0.0 0.00 0.00 0.00 79 1020.6
20260507050318 8 79 0.0 0.0 0.00 0.00 0.00 78 1020.5
20260507045815 8 79 0.0 1.6 0.00 0.00 0.00 78 1020.4
20260507045312 8 91 0.0 0.0 0.00 0.00 0.00 77 1020.3
20260507044809 9 91 0.0 0.0 0.00 0.00 0.00 75 1020.2
20260507044305 9 91 0.0 0.0 0.00 0.00 0.00 74 1019.8
20260507043801 9 91 0.0 0.0 0.00 0.00 0.00 74 1019.9
20260507043258 10 91 0.0 0.0 0.00 0.00 0.00 71 1020.1
20260507042755 10 91 0.0 0.0 0.00 0.00 0.00 71 1019.8
20260507042249 10 91 0.0 0.0 0.00 0.00 0.00 71 1019.7
20260507041748 9 56 0.0 0.0 0.00 0.00 0.00 73 1019.7
20260507041244 8 56 0.0 0.0 0.00 0.00 0.00 75 1019.7
20260507040741 9 56 0.0 0.0 0.00 0.00 0.00 76 1020.1
20260507040237 9 56 0.0 0.0 0.00 0.00 0.00 76 1020.1
20260507035733 9 56 0.0 0.0 0.00 0.00 0.00 76 1020.0
20260507035229 9 56 0.0 0.0 0.00 0.00 0.00 75 1019.9
20260507034726 10 56 0.0 0.0 0.00 0.00 0.00 73 1020.0
20260507034223 10 56 0.0 0.0 0.00 0.00 0.00 73 1019.9
20260507033722 10 56 0.0 0.0 0.00 0.00 0.00 71 1019.8
20260507033219 10 56 0.0 0.0 0.00 0.00 0.00 71 1019.7
20260507032716 10 56 0.0 0.0 0.00 0.00 0.00 72 1019.7
20260507032212 10 56 0.0 0.0 0.00 0.00 0.00 69 1019.6
20260507031709 11 56 0.0 0.0 0.00 0.00 0.00 70 1019.7
20260507031205 11 56 0.0 0.0 0.00 0.00 0.00 69 1019.6
20260507030702 11 56 0.0 0.0 0.00 0.00 0.00 69 1019.5
20260507030200 12 56 0.0 0.0 0.00 0.00 0.00 66 1019.5
20260507025657 12 56 0.0 0.0 0.00 0.00 0.00 65 1019.3
20260507025154 12 56 0.0 0.0 0.00 0.00 0.00 63 1019.2
20260507024652 12 56 0.0 0.0 0.00 0.00 0.00 62 1019.1
20260507024149 12 64 0.0 0.0 0.00 0.00 0.00 63 1018.9
20260507023644 13 77 0.0 0.0 0.00 0.00 0.00 62 1018.9
20260507023142 13 59 0.0 0.0 0.00 0.00 0.00 60 1018.8
20260507022639 13 59 0.0 1.6 0.00 0.00 0.00 59 1018.8
20260507022134 14 59 0.0 0.0 0.00 0.00 0.00 58 1018.9
20260507021631 14 50 0.0 0.0 0.00 0.00 0.00 58 1018.8
20260507021126 15 66 1.6 1.6 0.00 0.00 0.00 57 1019.1
20260507020625 15 77 0.0 0.0 0.00 0.00 0.00 58 1018.9
20260507020121 15 84 3.2 4.8 0.00 0.00 0.00 56 1018.7
20260507015619 15 54 0.0 1.6 0.00 0.00 0.00 57 1018.7
20260507015116 15 53 1.6 1.6 0.00 0.00 0.00 55 1018.5
20260507014613 15 24 0.0 1.6 0.00 0.00 0.00 55 1018.4
20260507014109 15 65 0.0 0.0 0.00 0.00 0.00 55 1018.4
20260507013606 15 55 0.0 0.0 0.00 0.00 0.00 55 1018.4
20260507013103 15 54 3.2 3.2 0.00 0.00 0.00 54 1018.6
20260507012600 15 359 0.0 3.2 0.00 0.00 0.00 54 1018.2
20260507012055 15 65 1.6 3.2 0.00 0.00 0.00 54 1018.4
20260507011554 16 61 1.6 1.6 0.00 0.00 0.00 53 1018.4
20260507011050 16 346 0.0 1.6 0.00 0.00 0.00 52 1018.3
20260507010544 16 39 0.0 0.0 0.00 0.00 0.00 53 1018.3
20260507010041 16 63 0.0 3.2 0.00 0.00 0.00 51 1018.1
20260507005538 16 57 0.0 3.2 0.00 0.00 0.00 50 1018.1
20260507005034 16 56 0.0 0.0 0.00 0.00 0.00 51 1018.0
20260507004532 16 45 0.0 3.2 0.00 0.00 0.00 52 1018.0
20260507004029 16 99 1.6 3.2 0.00 0.00 0.00 52 1018.1
20260507003524 16 42 1.6 6.4 0.00 0.00 0.00 52 1018.1
20260507003020 16 63 0.0 1.6 0.00 0.00 0.00 52 1018.1
20260507002516 16 83 3.2 6.4 0.00 0.00 0.00 51 1017.9
20260507002013 16 42 0.0 1.6 0.00 0.00 0.00 50 1017.6
20260507001509 16 72 0.0 0.0 0.00 0.00 0.00 49 1017.4
20260507001007 16 355 0.0 3.2 0.00 0.00 0.00 49 1017.5
20260507000503 16 89 0.0 1.6 0.00 0.00 0.00 49 1017.6
20260506235958 17 289 1.6 3.2 0.00 0.00 0.00 48 1017.6
20260506235456 17 58 1.6 1.6 0.00 0.00 0.00 47 1017.5
20260506234951 17 115 1.6 3.2 0.00 0.00 0.00 47 1017.4
20260506234449 17 49 1.6 6.4 0.00 0.00 0.00 46 1017.3
20260506233946 17 57 1.6 9.7 0.00 0.00 0.00 46 1017.3
20260506233443 17 56 4.8 9.7 0.00 0.00 0.00 46 1017.5
20260506232939 17 25 1.6 12.9 0.00 0.00 0.00 46 1017.1
20260506232436 17 24 0.0 4.8 0.00 0.00 0.00 47 1017.3
20260506231931 18 56 1.6 4.8 0.00 0.00 0.00 46 1017.1
20260506231429 18 29 3.2 4.8 0.00 0.00 0.00 46 1017.0
20260506230926 18 50 3.2 3.2 0.00 0.00 0.00 44 1017.0
20260506230422 18 30 1.6 6.4 0.00 0.00 0.00 44 1017.1
20260506225919 18 53 8.0 14.5 0.00 0.00 0.00 44 1017.0
20260506225417 18 48 1.6 6.4 0.00 0.00 0.00 43 1017.0
20260506224914 18 48 0.0 11.3 0.00 0.00 0.00 44 1016.7
20260506224411 18 310 0.0 4.8 0.00 0.00 0.00 44 1016.9
20260506223907 18 68 3.2 4.8 0.00 0.00 0.00 45 1016.9
20260506223402 18 50 4.8 9.7 0.00 0.00 0.00 44 1016.6
20260506222900 18 72 1.6 9.7 0.00 0.00 0.00 45 1016.6
20260506222355 18 53 1.6 3.2 0.00 0.00 0.00 46 1016.5
20260506221853 17 74 0.0 3.2 0.00 0.00 0.00 48 1016.4
20260506221350 18 17 3.2 6.4 0.00 0.00 0.00 46 1016.6
20260506220848 19 81 1.6 16.1 0.00 0.00 0.00 44 1016.6
20260506220343 18 66 4.8 9.7 0.00 0.00 0.00 45 1016.4
20260506215840 18 41 1.6 9.7 0.00 0.00 0.00 45 1016.5
20260506215336 18 16 3.2 9.7 0.00 0.00 0.00 46 1016.7
20260506214832 18 31 4.8 14.5 0.00 0.00 0.00 45 1016.6
20260506214329 17 46 1.6 3.2 0.00 0.00 0.00 51 1016.8
20260506213828 17 42 3.2 6.4 0.00 0.00 0.00 48 1016.8
20260506213324 17 156 0.0 3.2 0.00 0.00 0.00 51 1016.9
20260506212822 17 57 3.2 4.8 0.00 0.00 0.00 49 1016.7
20260506212317 17 78 1.6 9.7 0.00 0.00 0.00 49 1016.9
20260506211812 18 141 4.8 6.4 0.00 0.00 0.00 48 1017.0
20260506211309 18 75 1.6 4.8 0.00 0.00 0.00 46 1016.9
20260506210807 17 84 1.6 6.4 0.00 0.00 0.00 48 1017.0
20260506210303 18 70 0.0 14.5 0.00 0.00 0.00 46 1017.0
20260506205800 17 297 6.4 11.3 0.00 0.00 0.00 50 1017.0
20260506205256 17 357 1.6 9.7 0.00 0.00 0.00 49 1016.9
20260506204752 17 359 3.2 11.3 0.00 0.00 0.00 52 1017.1
20260506204250 17 30 6.4 11.3 0.00 0.00 0.00 50 1017.3
20260506203748 17 65 3.2 6.4 0.00 0.00 0.00 51 1017.2
20260506203245 17 133 3.2 6.4 0.00 0.00 0.00 51 1017.1
20260506202742 17 0 3.2 6.4 0.00 0.00 0.00 52 1017.4
20260506202239 17 52 4.8 11.3 0.00 0.00 0.00 53 1017.3
20260506201735 17 88 1.6 6.4 0.00 0.00 0.00 52 1017.4
20260506201232 17 64 4.8 6.4 0.00 0.00 0.00 52 1017.4
20260506200729 17 29 1.6 6.4 0.00 0.00 0.00 52 1017.5
20260506200226 16 39 0.0 3.2 0.00 0.00 0.00 53 1017.6
20260506195722 16 56 3.2 12.9 0.00 0.00 0.00 52 1017.5
20260506195219 17 62 1.6 6.4 0.00 0.00 0.00 51 1017.4
20260506194716 17 347 1.6 9.7 0.00 0.00 0.00 51 1017.6
20260506194212 17 84 3.2 6.4 0.00 0.00 0.00 51 1017.5
20260506193710 17 1 6.4 9.7 0.00 0.00 0.00 51 1017.4
20260506193207 17 42 3.2 6.4 0.00 0.00 0.00 52 1017.6
20260506192703 16 37 3.2 12.9 0.00 0.00 0.00 53 1018.0
20260506192200 16 74 1.6 6.4 0.00 0.00 0.00 52 1017.8
20260506191657 17 47 0.0 6.4 0.00 0.00 0.00 52 1017.6
20260506191153 17 11 4.8 9.7 0.00 0.00 0.00 52 1017.8
20260506190650 17 355 3.2 4.8 0.00 0.00 0.00 52 1017.9
20260506190147 17 34 0.0 9.7 0.00 0.00 0.00 53 1017.9
20260506185644 17 62 1.6 6.4 0.00 0.00 0.00 52 1017.9
20260506185140 17 93 6.4 9.7 0.00 0.00 0.00 50 1018.0
20260506184638 17 70 3.2 4.8 0.00 0.00 0.00 51 1017.8
20260506184135 17 87 3.2 12.9 0.00 0.00 0.00 50 1018.0
20260506183632 17 243 1.6 3.2 0.00 0.00 0.00 51 1018.1
20260506183127 16 350 0.0 1.6 0.00 0.00 0.00 53 1018.2
20260506182625 17 236 1.6 6.4 0.00 0.00 0.00 51 1018.2
20260506182122 17 55 8.0 12.9 0.00 0.00 0.00 50 1018.2
20260506181620 16 15 3.2 11.3 0.00 0.00 0.00 53 1018.2
20260506181117 16 49 9.7 14.5 0.00 0.00 0.00 52 1018.4
20260506180614 16 36 6.4 9.7 0.00 0.00 0.00 52 1018.3
20260506180110 16 44 1.6 6.4 0.00 0.00 0.00 53 1018.7
20260506175606 16 34 6.4 9.7 0.00 0.00 0.00 51 1018.8
20260506175102 16 27 4.8 9.7 0.00 0.00 0.00 51 1019.0
20260506174602 16 23 6.4 9.7 0.00 0.00 0.00 50 1018.8
20260506174057 16 49 4.8 6.4 0.00 0.00 0.00 54 1018.8
20260506173555 16 60 4.8 4.8 0.00 0.00 0.00 52 1018.7
20260506173052 17 66 4.8 12.9 0.00 0.00 0.00 50 1018.7
20260506172549 15 79 1.6 3.2 0.00 0.00 0.00 54 1018.6
20260506172045 15 37 4.8 12.9 0.00 0.00 0.00 53 1018.8
20260506171543 15 61 6.4 11.3 0.00 0.00 0.00 55 1018.7
20260506171041 15 355 3.2 9.7 0.00 0.00 0.00 52 1018.8
20260506170538 15 91 4.8 16.1 0.00 0.00 0.00 54 1018.9
20260506170035 15 106 1.6 11.3 0.00 0.00 0.00 54 1019.0
20260506165534 15 62 1.6 12.9 0.00 0.00 0.00 54 1019.0
20260506165029 16 55 8.0 11.3 0.00 0.00 0.00 52 1019.0
20260506164526 15 20 6.4 12.9 0.00 0.00 0.00 51 1019.0
20260506164024 16 339 4.8 9.7 0.00 0.00 0.00 51 1019.0
20260506163520 16 70 6.4 6.4 0.00 0.00 0.00 51 1019.1
20260506163016 16 68 3.2 9.7 0.00 0.00 0.00 51 1019.1
20260506162512 16 99 3.2 4.8 0.00 0.00 0.00 55 1019.1
20260506162009 15 48 4.8 9.7 0.00 0.00 0.00 54 1019.0
20260506161507 15 53 3.2 14.5 0.00 0.00 0.00 56 1018.9
20260506161004 14 74 6.4 11.3 0.00 0.00 0.00 54 1018.9
20260506160502 14 43 6.4 12.9 0.00 0.00 0.00 55 1019.0
20260506155959 14 203 3.2 9.7 0.00 0.00 0.00 55 1018.7
20260506155457 13 356 0.0 3.2 0.00 0.00 0.00 58 1018.9
20260506153628 13 53 8.0 12.9 0.00 0.00 0.00 58 1018.9
20260506153125 13 36 4.8 9.7 0.00 0.00 0.00 60 1018.9
20260506152622 13 55 0.0 11.3 0.00 0.00 0.00 61 1018.9
20260506152120 13 67 3.2 9.7 0.00 0.00 0.00 62 1018.8
20260506151619 13 58 6.4 12.9 0.00 0.00 0.00 61 1018.9
20260506151115 12 34 8.0 11.3 0.00 0.00 0.00 63 1018.9
20260506150612 12 38 3.2 6.4 0.00 0.00 0.00 64 1018.5
20260506150109 12 31 3.2 9.7 0.00 0.00 0.00 65 1018.4
20260506145606 12 22 6.4 9.7 0.00 0.00 0.00 65 1018.4
20260506145103 12 38 3.2 12.9 0.00 0.00 0.00 67 1018.1
20260506144559 11 226 1.6 4.8 0.00 0.00 0.00 70 1018.1
20260506144056 11 97 1.6 12.9 0.00 0.00 0.00 70 1018.3
20260506143554 11 32 4.8 6.4 0.00 0.00 0.00 72 1018.3
20260506143052 11 36 6.4 12.9 0.00 0.00 0.00 71 1018.3
20260506142550 11 74 4.8 11.3 0.00 0.00 0.00 72 1018.1
20260506142048 10 307 3.2 12.9 0.00 0.00 0.00 73 1018.0
20260506141545 10 44 3.2 3.2 0.00 0.00 0.00 75 1018.1
20260506141043 10 84 3.2 14.5 0.00 0.00 0.00 75 1018.4
20260506140540 10 85 4.8 11.3 0.00 0.00 0.00 74 1018.2
20260506140038 10 49 3.2 9.7 0.00 0.00 0.00 75 1018.4
20260506135534 10 266 11.3 20.9 0.00 0.00 0.00 75 1018.4
20260506135030 10 55 0.0 11.3 0.00 0.00 0.00 76 1018.3
20260506134527 10 61 1.6 6.4 0.00 0.00 0.00 76 1018.4
20260506134023 10 54 1.6 9.7 0.00 0.00 0.00 77 1018.2
20260506133521 10 66 6.4 9.7 0.00 0.00 0.00 77 1018.2
20260506133018 10 121 1.6 9.7 0.00 0.00 0.00 78 1018.2
20260506132514 10 57 1.6 6.4 0.00 0.00 0.00 78 1018.2
20260506132012 10 81 3.2 6.4 0.00 0.00 0.00 79 1018.2
20260506131509 9 51 3.2 9.7 0.00 0.00 0.00 79 1017.9
20260506131005 9 50 1.6 4.8 0.00 0.00 0.00 80 1018.0
20260506130502 9 31 3.2 6.4 0.00 0.00 0.00 80 1018.1
20260506125959 9 74 6.4 9.7 0.00 0.00 0.00 80 1018.1
20260506125458 9 14 4.8 12.9 0.00 0.00 0.00 80 1018.0
20260506124955 9 69 3.2 6.4 0.00 0.00 0.00 81 1018.1
20260506124453 9 60 3.2 4.8 0.00 0.00 0.00 82 1017.8
20260506123951 9 354 4.8 12.9 0.00 0.00 0.00 82 1017.8
20260506123448 8 82 3.2 4.8 0.00 0.00 0.00 82 1017.9
20260506122946 8 167 1.6 6.4 0.00 0.00 0.00 81 1017.6
20260506122443 8 49 4.8 11.3 0.00 0.00 0.00 81 1017.4
20260506121941 8 98 1.6 4.8 0.00 0.00 0.00 81 1017.4
20260506121438 8 59 0.0 3.2 0.00 0.00 0.00 81 1017.0
20260506120934 8 60 0.0 4.8 0.00 0.00 0.00 81 1017.3
20260506120432 8 71 0.0 9.7 0.00 0.00 0.00 81 1017.2
20260506115929 8 47 1.6 11.3 0.00 0.00 0.00 81 1017.0
20260506115427 8 57 1.6 6.4 0.00 0.00 0.00 81 1017.4
20260506114925 8 77 0.0 4.8 0.00 0.00 0.00 81 1017.0
20260506114422 8 7 3.2 6.4 0.00 0.00 0.00 80 1016.7
20260506113921 8 66 8.0 11.3 0.00 0.00 0.00 80 1016.6
20260506113418 8 65 1.6 3.2 0.00 0.00 0.00 80 1016.5
20260506112914 8 80 3.2 4.8 0.00 0.00 0.00 80 1016.7
20260506112413 8 93 4.8 6.4 0.00 0.00 0.00 80 1016.7
20260506111909 8 332 1.6 11.3 0.00 0.00 0.00 80 1016.5
20260506111408 8 45 1.6 4.8 0.00 0.00 0.00 79 1016.5
20260506110904 9 67 3.2 4.8 0.00 0.00 0.00 79 1016.5
20260506110402 9 8 1.6 6.4 0.00 0.00 0.00 79 1016.9
20260506105858 9 65 3.2 4.8 0.00 0.00 0.00 79 1017.1
20260506105355 9 33 1.6 9.7 0.00 0.00 0.00 79 1017.0
20260506104852 9 356 3.2 4.8 0.00 0.00 0.00 78 1017.1
20260506104350 9 5 1.6 4.8 0.00 0.00 0.00 78 1016.9
20260506103847 9 339 0.0 3.2 0.00 0.00 0.00 78 1016.9
20260506103345 9 326 3.2 4.8 0.00 0.00 0.00 78 1017.1
20260506102842 9 4 0.0 6.4 0.00 0.00 0.00 77 1017.0
20260506102340 9 345 4.8 9.7 0.00 0.00 0.00 78 1016.9
20260506101837 9 350 1.6 3.2 0.00 0.00 0.00 77 1016.9
20260506101333 9 53 3.2 6.4 0.00 0.00 0.00 77 1016.8
20260506100831 9 43 4.8 9.7 0.00 0.00 0.00 77 1016.9
20260506100329 9 357 6.4 9.7 0.00 0.00 0.00 77 1016.8
20260506095827 9 49 4.8 11.3 0.00 0.00 0.00 77 1016.5
20260506095324 9 54 1.6 3.2 0.00 0.00 0.00 77 1016.4
20260506094821 9 32 1.6 4.8 0.00 0.00 0.00 77 1016.4
20260506094319 9 280 1.6 12.9 0.00 0.00 0.00 77 1016.3